Wind_Speed
37 37 38 39 41 42 44 45 46 47 49 50 50 51 52 52 53 55 56 57 59 60 61 63 65 66 67 69 70 71 73 75 77 79 81 83 85 87 89 92 94 96 99 100 102 103 104 105 107 108 110 112 114 116 118 119 120 122 123 126 129 131 132 133 133 133 135 137 139 140 141 140 140 139 138 138 137 137 138 138 138 138 138 139 139
35 35 35 36 38 39 41 42 44 45 47 48 49 50 51 51 52 52 54 55 56 57 58 60 61 62 63 65 67 68 70 72 74 75 76 78 80 83 85 87 90 92 94 96 98 100 101 103 104 106 108 109 110 111 113 114 116 118 120 122 124 127 129 130 130 130 132 135 137 139 140 140 140 140 140 139 139 138 138 138 138 138 138 139 139
34 33 33 33 34 35 36 38 40 42 44 46 47 48 49 50 50 51 52 53 54 54 56 58 59 60 60 61 63 65 66 67 68 69 71 73 76 79 82 84 86 88 90 92 94 96 98 99 102 104 105 106 107 108 110 111 112 113 115 117 120 122 125 127 128 128 129 132 134 136 138 139 139 140 141 141 140 140 140 140 139 138 138 138 139
32 32 32 31 31 32 32 34 36 37 39 41 43 44 46 47 48 48 49 50 51 52 53 55 57 58 58 59 60 61 62 62 62 64 67 70 73 76 78 80 82 84 86 88 90 92 94 96 99 101 102 103 104 105 107 109 110 110 111 113 115 117 120 123 125 126 127 129 131 133 135 137 138 139 140 141 141 141 141 141 141 139 138 138 138
30 30 30 31 31 31 31 32 33 34 36 37 39 41 42 44 45 46 47 48 49 50 51 53 54 54 55 56 57 57 58 58 59 61 64 67 69 72 74 76 78 80 83 85 87 89 91 93 95 97 99 100 101 102 104 106 107 108 109 110 111 112 115 119 122 124 126 128 129 130 132 134 136 137 138 140 140 141 141 142 142 140 138 138 138
29 28 28 29 29 29 30 30 31 32 33 34 35 37 38 40 42 43 45 47 48 49 50 51 51 51 51 52 52 53 53 55 58 61 63 65 66 68 69 70 72 74 77 81 84 86 88 90 92 94 95 96 98 100 102 103 104 105 107 109 110 110 111 114 117 120 123 126 127 128 130 131 133 134 136 137 139 140 140 141 142 141 140 138 138
29 29 28 28 27 27 28 29 30 31 31 32 33 33 34 36 38 40 42 45 46 47 48 49 49 49 47 47 47 48 50 52 55 59 60 61 62 64 65 65 67 69 71 75 78 81 83 86 89 91 92 93 95 97 99 100 101 102 103 106 108 109 109 110 111 115 118 122 125 127 128 129 130 131 132 135 137 138 139 140 141 141 140 140 139
28 28 27 27 27 27 27 27 27 28 29 30 30 31 32 33 35 38 41 43 44 45 45 46 46 45 43 43 43 45 47 48 49 51 53 56 60 61 62 62 63 65 67 69 72 75 77 80 83 86 89 92 93 95 96 97 98 99 101 102 104 105 107 107 108 110 113 117 122 125 127 128 129 129 130 132 134 135 136 137 138 139 140 140 140
26 26 25 25 25 25 26 26 26 26 27 27 28 28 30 31 33 37 40 40 40 40 41 42 43 42 40 41 42 42 43 43 43 45 50 54 58 58 58 59 61 63 64 65 67 70 72 74 78 81 85 88 90 92 93 94 95 96 98 99 100 100 102 103 105 107 109 113 117 121 125 127 128 128 128 130 131 132 133 135 136 138 140 141 141
24 23 23 23 23 23 23 24 24 24 25 25 25 26 27 29 31 35 38 38 37 37 37 38 39 38 38 39 40 40 39 39 39 43 47 50 53 54 55 56 58 60 61 62 64 66 68 71 73 76 79 82 86 88 90 92 92 93 94 95 96 97 98 99 101 104 106 109 113 118 122 124 127 128 127 128 129 131 133 134 135 137 139 140 140
23 22 22 21 21 21 20 20 21 22 22 23 23 24 24 26 28 32 34 35 35 35 36 36 35 35 35 36 38 38 37 36 37 40 43 46 49 51 51 53 54 56 58 60 62 63 65 67 69 71 74 77 80 83 86 88 89 90 90 90 91 93 95 96 98 100 103 106 110 115 119 122 125 127 128 128 128 130 132 133 134 135 136 137 137
26 24 23 22 21 20 19 19 18 19 20 20 21 22 23 24 25 28 30 31 32 33 34 34 34 34 35 35 36 37 36 36 38 40 42 44 46 47 48 50 51 52 54 56 58 60 62 64 66 68 70 73 76 78 81 84 86 87 87 87 87 88 91 93 95 97 99 102 106 111 115 119 122 126 128 129 129 130 130 132 133 134 134 134 134
30 28 25 23 22 21 20 19 18 18 18 18 19 20 21 22 23 25 26 27 28 29 31 32 33 34 34 35 35 36 36 37 38 40 42 43 43 44 45 47 48 49 51 52 54 56 58 60 62 65 67 69 72 74 77 79 81 83 84 84 84 84 87 90 93 95 97 98 101 106 111 115 120 123 127 129 131 131 130 131 131 132 132 132 132
33 30 27 25 23 23 22 21 20 19 18 18 18 18 19 20 21 22 23 24 25 26 28 29 31 32 33 34 34 35 35 36 37 39 40 40 41 41 42 44 45 47 48 49 51 52 54 56 58 61 63 66 68 70 73 75 77 79 80 81 81 81 83 85 89 92 95 96 98 101 105 111 116 121 125 128 131 132 131 129 130 130 130 131 131
34 32 29 27 26 24 23 22 21 21 20 19 18 17 17 18 18 20 21 22 23 24 25 27 28 30 31 32 32 33 34 35 36 38 38 39 38 38 39 41 42 44 45 46 48 49 50 52 55 57 59 62 64 66 68 70 72 75 76 78 78 78 80 82 85 88 91 93 94 97 100 105 111 116 121 126 129 131 131 130 129 129 129 129 129
36 33 32 30 28 26 24 23 22 21 20 20 18 17 16 16 17 17 18 19 20 22 23 24 26 27 28 30 31 31 32 34 35 36 37 37 37 37 37 38 39 41 42 43 44 46 48 50 52 54 56 58 61 63 65 67 69 71 73 74 75 76 77 78 80 83 86 89 91 93 95 99 105 111 116 121 125 128 130 130 130 128 127 126 125
38 36 34 32 30 28 25 23 22 21 20 19 18 17 16 16 16 16 17 18 19 20 21 22 23 25 26 27 28 30 31 32 34 35 36 36 36 36 36 36 37 39 40 41 42 44 46 48 50 51 53 56 58 60 62 64 66 67 69 71 72 73 75 75 76 79 82 85 87 90 92 95 99 104 110 115 119 123 127 128 128 128 127 125 124
39 37 36 34 32 29 26 24 22 21 20 19 18 17 16 15 15 15 16 17 18 19 20 21 22 24 25 26 27 28 29 31 32 34 34 35 35 35 35 35 36 37 39 40 41 42 44 46 48 50 52 54 55 57 59 61 63 65 66 68 69 71 72 73 73 75 78 81 84 86 89 91 94 98 103 108 113 117 121 124 126 127 127 125 124
40 38 37 35 33 30 28 26 24 23 21 20 19 18 16 15 15 14 15 15 16 17 18 19 21 22 23 25 26 27 28 30 31 32 33 33 34 34 34 34 34 36 38 39 40 41 43 44 46 48 49 51 53 54 56 58 61 62 64 65 68 70 70 70 71 73 75 77 80 82 85 87 90 93 97 101 106 110 114 119 122 125 125 125 123
42 40 38 37 34 32 30 28 26 25 23 22 20 19 17 16 15 14 14 14 14 15 16 17 18 20 21 22 23 25 26 27 29 31 31 32 32 32 32 32 33 34 36 37 38 39 41 43 44 46 47 48 50 52 54 57 59 60 61 63 66 67 66 66 68 71 73 74 76 78 81 83 86 88 92 95 99 103 108 112 116 120 122 123 122
45 42 40 38 36 34 32 31 29 27 26 24 23 21 19 17 16 15 14 13 13 13 14 15 16 17 19 20 21 22 24 25 26 28 29 29 30 30 30 30 31 32 33 35 36 37 39 41 42 43 45 46 48 50 52 55 57 59 60 62 64 64 63 64 67 69 71 72 74 76 78 80 82 85 87 91 95 98 102 105 109 113 116 118 119
48 45 42 39 37 35 33 32 30 29 28 26 24 23 21 19 17 16 14 14 13 13 13 13 14 15 16 17 19 20 22 23 24 25 26 27 27 27 28 28 28 29 31 32 34 35 37 38 40 41 43 44 46 48 50 53 55 57 59 61 62 61 61 63 65 67 69 71 72 74 76 78 79 81 84 87 90 93 96 99 102 106 109 111 113
50 48 45 42 39 36 33 31 30 28 26 25 24 23 22 20 19 17 15 14 13 13 13 13 13 13 14 14 16 17 19 21 22 24 25 26 26 26 26 26 26 27 28 30 32 33 35 36 38 39 41 42 44 46 48 51 54 56 57 58 59 59 60 61 62 65 67 68 70 72 74 75 77 79 80 82 85 88 90 93 95 98 100 103 105
52 49 47 44 41 39 35 32 30 28 26 25 23 22 21 20 19 18 17 16 15 14 13 13 12 12 12 13 14 15 16 17 19 21 22 23 24 25 25 25 25 25 26 27 28 30 32 33 35 37 38 40 42 44 47 49 52 54 55 55 56 56 57 58 60 62 64 66 67 70 71 72 74 76 77 79 81 82 84 87 89 91 93 96 99
54 51 48 46 43 40 37 34 31 29 28 26 25 23 21 20 19 19 18 18 17 16 15 15 14 12 12 11 12 13 14 15 16 17 19 20 21 22 23 24 24 24 25 25 26 27 29 30 32 33 35 37 39 42 44 47 50 52 53 53 52 53 54 56 58 60 62 64 66 67 68 69 70 72 74 75 77 78 80 82 84 86 88 91 94
57 54 51 48 45 42 39 36 34 31 29 27 26 25 23 21 20 19 18 18 18 17 17 16 16 15 14 12 12 12 12 13 14 15 16 17 18 19 21 22 22 23 24 25 25 26 26 27 29 30 32 34 35 38 40 43 46 48 49 50 49 50 52 55 56 57 59 61 63 65 66 66 67 69 70 72 74 76 77 79 81 82 84 87 89
58 55 53 50 47 44 41 38 36 33 31 29 28 26 25 24 22 21 20 19 18 17 17 17 16 16 16 15 13 12 12 12 12 13 14 15 16 17 18 19 20 21 22 23 24 25 25 25 26 27 28 30 32 33 35 37 41 44 45 47 47 48 51 53 54 55 57 58 60 62 63 63 64 65 67 69 71 72 74 75 77 79 81 83 84
58 56 54 51 49 46 44 41 38 36 34 31 29 28 27 25 24 22 21 20 19 18 18 17 16 16 15 15 15 14 13 12 12 12 13 14 15 15 16 17 18 19 20 21 23 24 24 25 25 25 25 26 28 30 32 34 36 39 42 44 46 47 49 51 52 52 54 55 57 58 59 60 61 62 63 65 67 69 70 72 74 76 78 79 80
59 57 55 52 50 47 45 42 40 38 35 33 31 28 27 25 24 22 21 20 19 18 18 17 16 16 15 15 14 14 13 13 13 13 13 13 13 14 14 15 16 17 18 19 20 21 22 23 23 24 24 24 25 27 29 31 33 36 38 41 43 44 45 47 49 49 50 52 54 55 57 58 58 59 60 62 64 65 68 70 72 74 75 76 78
61 58 56 54 52 49 46 44 41 38 36 34 32 30 27 25 23 22 21 20 18 17 17 16 15 15 15 14 14 13 13 13 13 13 13 13 12 12 13 13 14 15 16 16 17 18 19 20 21 22 23 23 24 25 26 28 30 32 35 37 38 39 40 43 45 47 48 50 52 53 55 56 57 58 58 59 61 63 65 68 69 71 73 74 75
64 61 58 55 54 52 49 47 44 41 38 35 33 32 31 28 25 23 22 21 19 17 16 15 15 14 14 13 13 12 12 12 12 12 12 12 12 11 11 12 12 13 13 14 15 16 16 17 18 19 20 21 23 24 25 26 27 29 31 32 34 35 37 39 42 44 46 48 50 51 52 54 55 56 56 57 59 60 62 64 66 68 70 72 73
65 63 60 57 55 53 51 49 46 44 41 38 35 33 32 31 29 27 24 22 20 19 17 16 15 14 14 13 13 12 11 11 10 10 10 10 10 10 10 10 11 12 12 13 13 13 14 15 16 17 18 19 20 22 23 24 25 27 28 29 30 31 33 35 37 39 42 44 47 49 50 51 52 53 54 55 56 57 59 61 62 63 65 68 69
66 64 62 59 56 54 52 51 49 46 44 41 38 35 32 30 29 29 28 26 24 22 20 18 16 15 14 13 13 12 12 11 10 9 9 9 9 9 9 9 9 10 11 11 12 12 12 13 14 14 15 17 18 19 21 22 24 25 26 27 28 29 30 31 32 34 36 39 41 44 46 47 49 50 51 52 52 54 56 57 58 58 60 62 64
68 65 62 60 58 55 53 51 50 48 45 43 40 38 35 32 30 28 28 27 26 24 23 21 19 17 16 15 14 13 13 12 11 9 9 8 8 7 7 7 7 8 9 9 10 10 11 12 12 12 13 14 15 17 18 20 21 23 24 25 27 28 29 30 30 32 33 35 37 39 41 43 44 46 47 48 49 50 52 53 53 54 55 56 58
69 67 64 61 59 56 54 51 49 48 47 45 42 40 38 36 33 30 28 27 26 25 24 23 21 19 18 17 16 15 14 13 12 11 10 9 8 7 7 6 6 6 7 8 8 9 9 10 11 11 11 12 12 14 15 17 19 21 22 23 24 26 27 28 29 30 31 33 34 36 37 39 40 42 43 44 45 46 47 49 49 50 51 52 54
69 67 65 63 60 58 55 53 50 48 47 45 44 42 39 37 35 32 30 28 27 26 24 23 22 21 19 18 18 17 15 13 12 11 11 10 9 8 7 7 6 6 6 6 7 7 8 8 9 10 10 11 11 12 13 14 16 18 19 20 22 23 24 25 26 28 29 30 32 34 35 36 38 39 40 41 42 43 44 45 45 47 48 49 51
71 67 65 63 61 59 56 54 52 49 47 45 44 43 41 39 36 34 32 29 27 26 25 24 23 22 20 19 18 18 17 15 13 12 11 11 10 9 9 8 7 6 6 6 6 6 7 7 8 9 10 10 11 11 12 13 14 15 17 18 19 20 21 23 24 25 26 27 29 31 32 34 35 37 38 38 39 40 41 41 42 43 44 45 47
73 70 67 64 62 59 57 55 53 50 48 45 44 43 41 40 38 36 34 32 29 27 25 24 23 22 21 19 18 18 17 16 15 13 12 11 11 10 10 9 8 7 7 6 6 6 6 7 7 8 9 10 10 11 12 12 13 15 16 17 18 19 20 21 22 23 24 25 26 27 29 31 33 34 35 36 37 38 39 39 40 40 41 42 43
74 71 68 66 63 61 58 56 54 52 50 47 45 43 41 40 38 37 35 34 31 29 27 25 24 22 21 20 19 18 17 17 16 15 14 12 11 11 10 10 9 9 8 7 7 6 6 6 7 7 8 9 10 11 12 13 13 14 15 16 17 19 20 21 22 22 23 24 25 26 27 28 30 31 33 34 35 36 37 38 38 39 39 40 41
76 72 69 66 64 62 60 57 55 53 51 49 46 44 41 40 39 38 36 35 33 31 29 27 25 24 22 21 19 18 18 17 16 15 15 14 13 12 11 10 10 9 9 9 8 7 7 6 6 6 7 8 9 10 11 12 13 14 15 16 17 18 19 20 21 22 22 23 24 25 26 27 28 29 31 32 33 34 35 36 37 38 38 39 39
78 74 71 68 65 63 61 59 57 54 52 50 48 46 43 40 39 38 37 35 34 32 30 28 27 25 24 22 21 19 18 17 17 16 15 14 13 13 12 11 11 10 9 9 9 9 8 7 7 7 7 7 7 8 9 10 12 13 14 15 16 16 17 18 19 20 20 21 22 23 24 25 26 27 28 30 31 32 33 34 35 36 37 38 38
80 76 73 69 66 63 62 60 58 56 54 52 50 48 45 42 40 38 37 36 35 34 32 30 28 27 26 24 23 21 19 18 17 16 16 15 14 13 12 12 11 11 10 10 9 9 9 8 8 7 7 7 7 7 7 8 9 11 12 13 14 15 16 16 17 18 18 19 20 21 21 22 23 25 26 27 28 29 30 31 32 33 34 35 36
82 78 75 71 68 65 62 60 59 57 54 52 51 49 47 44 41 39 37 36 35 34 33 32 29 27 26 25 25 24 22 20 18 17 16 15 15 14 13 13 12 12 11 11 10 10 10 9 9 9 8 8 8 8 8 8 8 9 10 11 12 13 14 15 16 16 17 18 18 19 19 20 21 22 23 23 24 26 27 28 29 30 31 32 33
83 79 76 73 69 66 63 61 59 57 55 53 51 49 48 46 44 40 38 37 36 34 33 32 31 29 27 25 25 24 24 22 20 19 17 16 16 15 14 14 13 13 13 12 12 11 11 11 10 10 10 10 10 9 9 9 9 9 9 10 11 11 12 13 14 14 15 16 17 17 18 19 19 20 21 21 22 23 24 25 26 27 28 29 30
84 80 77 74 71 67 64 61 59 58 56 54 52 50 48 47 45 43 40 37 36 35 33 33 32 30 28 26 25 24 24 23 22 21 19 18 17 16 14 14 13 13 13 13 13 12 12 12 12 11 11 11 11 11 11 11 11 11 11 11 11 12 12 12 13 13 14 14 15 15 16 17 18 18 19 20 21 22 22 23 24 25 26 27 28
87 82 78 75 72 69 66 63 60 57 56 54 53 51 49 47 46 44 42 39 37 35 34 33 32 31 30 28 26 24 23 23 23 22 21 19 18 16 15 14 14 13 13 13 13 13 12 12 12 12 12 12 12 12 12 12 12 12 12 12 12 13 13 13 13 14 14 14 14 15 15 16 16 17 18 19 19 20 21 22 22 23 24 25 26
90 85 80 76 73 70 67 64 62 59 57 55 53 51 50 48 46 45 43 41 38 35 34 33 32 31 30 29 27 26 24 23 22 22 22 21 20 18 17 15 14 14 13 13 13 13 13 13 12 12 12 12 12 12 12 13 13 13 13 13 13 14 14 14 15 15 15 15 16 16 16 17 17 17 18 18 19 19 20 20 21 22 22 23 24
91 88 84 79 74 71 68 66 63 60 58 56 55 52 50 48 47 45 44 42 39 36 34 33 32 32 31 30 29 27 26 24 23 22 22 22 21 20 19 18 16 15 14 14 14 13 13 13 13 13 13 12 12 12 13 13 13 13 14 14 14 14 15 15 15 16 16 16 17 17 17 18 18 18 19 19 20 20 20 21 21 22 22 23 23
93 90 86 82 77 73 70 67 65 62 59 57 56 54 52 49 47 45 44 43 41 38 35 33 32 32 31 31 30 29 28 26 24 23 22 22 21 21 21 20 19 17 16 14 14 14 14 14 13 13 13 13 13 13 13 13 14 14 14 14 14 14 15 15 16 16 17 17 17 17 18 18 18 19 19 20 20 21 21 21 22 22 23 23 24
93 91 88 84 79 75 71 69 66 64 61 59 57 55 53 51 49 46 44 42 41 39 36 33 31 31 31 31 31 30 29 28 27 25 24 23 22 21 21 21 21 20 18 17 15 15 14 14 14 13 13 13 13 13 14 14 14 15 15 15 15 15 15 15 15 16 16 16 17 17 17 17 18 18 19 19 19 20 20 21 21 21 22 23 23
94 91 89 86 81 77 72 69 66 64 62 60 58 56 54 52 50 47 45 42 41 40 38 35 32 31 30 30 31 31 30 30 29 28 26 25 24 23 22 22 22 22 21 20 18 17 15 15 14 14 14 13 13 13 14 14 14 15 15 15 16 16 16 16 16 16 16 16 16 16 16 16 17 17 18 18 18 19 19 19 19 20 20 21 21
Wind_Direction
287 284 280 277 275 273 271 270 268 267 266 265 263 262 260 258 257 256 255 254 253 252 252 251 250 249 249 248 247 246 245 245 245 244 244 244 244 244 245 245 245 245 245 245 245 245 245 244 244 243 243 242 242 241 241 241 240 239 237 237 238 239 239 238 237 236 235 236 236 237 237 237 237 236 236 237 237 238 239 240 241 241 242 242 242
292 288 284 280 277 274 272 271 269 267 266 265 264 263 261 260 258 256 255 254 253 252 251 251 250 250 249 248 248 247 246 245 245 245 244 244 244 244 244 244 244 244 244 245 245 245 245 244 244 244 243 243 243 242 242 241 240 239 238 237 236 237 238 239 238 237 236 236 236 236 237 237 237 237 237 236 236 237 238 239 239 240 241 241 241
299 294 289 285 280 277 274 272 270 268 266 265 264 263 263 261 260 258 256 255 254 252 252 251 251 250 249 248 248 247 246 246 245 245 245 245 244 244 244 244 244 244 244 244 244 244 244 244 244 244 244 243 243 243 242 242 241 240 239 237 236 235 236 238 238 238 237 236 236 236 237 237 237 237 237 237 236 236 237 238 238 239 240 241 241
303 299 295 290 286 281 277 274 271 269 267 266 265 264 263 263 262 260 259 258 256 255 253 252 251 251 250 249 249 249 248 247 247 246 245 245 244 243 243 242 242 243 243 243 243 243 243 243 243 243 244 243 243 242 242 242 242 241 240 238 236 235 234 235 236 237 237 237 236 236 236 237 237 237 237 237 237 237 237 237 238 238 239 240 241
307 303 299 295 291 287 282 277 273 270 268 266 265 264 264 263 263 262 261 260 258 257 255 254 253 252 252 251 250 250 249 249 248 246 245 244 243 242 242 241 241 241 241 242 242 242 242 242 242 242 243 243 243 243 242 241 241 241 241 240 238 236 234 233 233 235 237 237 237 237 236 236 236 237 237 238 238 237 237 238 238 238 238 239 240
315 310 305 300 295 291 287 283 279 275 272 268 266 265 264 264 263 263 262 261 260 258 257 256 255 253 253 252 252 251 250 248 247 246 245 244 244 243 243 242 241 240 240 240 240 241 241 241 242 242 242 242 242 242 242 242 241 240 240 240 240 238 236 233 232 232 234 236 237 237 237 237 237 237 237 237 238 238 237 238 238 238 237 238 239
319 316 312 307 302 296 292 287 284 280 277 274 271 268 265 264 263 262 261 260 260 260 259 258 258 257 256 255 254 252 250 247 246 247 248 248 247 247 246 245 243 242 241 240 240 240 240 240 240 241 242 241 241 241 241 242 241 241 240 239 239 239 238 236 233 231 231 234 236 237 238 237 237 237 237 237 238 238 238 238 238 238 238 237 238
322 319 316 312 308 303 298 293 288 284 280 277 275 272 268 266 264 263 261 259 260 261 262 263 263 262 260 258 254 251 250 249 248 249 249 249 248 247 247 246 245 244 242 241 240 240 240 239 239 239 240 241 241 241 241 241 241 241 241 240 239 238 238 237 236 233 231 231 234 236 238 238 238 237 237 237 238 238 238 238 238 238 238 238 237
326 323 319 315 311 307 303 299 295 290 285 281 277 273 269 266 264 264 263 263 262 262 263 264 265 264 263 260 257 254 252 251 250 249 248 248 248 248 247 247 246 246 245 243 242 241 240 239 239 238 238 239 240 241 241 241 241 240 240 240 240 239 238 237 236 235 233 232 232 234 236 238 238 238 237 237 238 238 238 238 238 238 238 238 237
334 329 324 320 315 311 307 303 300 295 291 286 281 275 270 267 264 264 266 268 268 267 266 265 265 266 264 263 261 258 255 253 250 248 247 248 249 249 248 247 246 246 246 245 243 242 241 240 239 239 239 239 239 240 240 241 242 241 240 240 240 240 239 238 236 235 234 233 232 232 234 236 238 239 238 238 238 238 238 238 238 238 238 238 238
344 339 334 328 323 318 313 308 303 299 295 291 286 280 274 268 265 266 268 270 271 270 270 268 267 266 265 262 261 259 256 253 249 247 246 246 247 247 247 246 246 245 245 244 244 243 242 241 240 239 239 239 239 239 239 240 241 242 241 240 239 239 239 238 237 235 234 233 232 232 232 233 235 237 239 239 238 238 238 238 239 239 239 239 239
351 348 344 338 333 327 322 317 310 305 299 294 290 285 278 273 269 267 268 269 270 270 270 270 268 265 263 260 259 257 255 251 247 245 244 244 245 246 246 246 246 245 244 244 244 243 243 242 241 240 239 239 239 239 239 240 240 241 242 241 240 238 237 237 237 236 235 233 232 232 232 232 233 234 237 239 239 239 238 238 239 239 239 239 239
352 351 349 346 342 337 332 327 321 315 309 303 297 291 284 278 273 270 269 269 269 269 268 268 266 264 262 260 259 258 256 252 250 248 246 246 245 245 245 246 246 245 245 244 243 243 242 242 242 241 240 240 239 239 239 240 240 241 241 241 240 239 237 236 236 236 236 235 233 232 232 232 232 233 234 236 239 239 239 239 239 239 240 240 240
354 353 353 352 349 345 340 336 331 326 321 314 307 301 294 287 280 275 273 271 270 268 267 266 264 264 263 262 261 260 258 256 254 252 251 249 247 246 246 246 246 246 245 245 244 243 242 242 242 242 241 241 240 240 240 240 240 241 241 241 241 240 238 237 236 236 236 235 234 233 232 232 232 232 233 234 236 239 240 240 240 240 240 240 240
358 357 356 354 353 350 347 343 339 335 330 324 318 312 305 298 291 285 281 278 275 273 270 268 266 265 264 264 262 261 260 258 257 255 255 253 251 249 247 247 247 246 246 246 245 244 243 242 242 241 241 241 241 241 241 241 240 240 241 241 241 240 239 237 236 236 236 236 235 234 233 232 232 232 233 233 235 237 240 241 241 241 241 241 241
1 359 358 356 354 352 351 348 345 341 337 331 325 319 313 306 298 292 287 283 280 278 275 273 270 268 267 266 265 263 261 259 258 257 257 257 255 253 251 250 249 247 247 246 246 246 244 243 242 241 241 241 241 241 241 241 241 241 240 240 240 240 239 238 237 236 236 236 236 236 235 234 233 233 233 234 234 236 238 240 242 242 243 243 243
3 1 359 357 355 354 353 352 350 347 342 337 332 326 319 311 304 296 290 285 281 278 275 273 271 269 268 267 266 264 262 261 259 258 258 259 258 256 253 251 250 249 247 246 245 245 244 243 242 241 240 240 240 240 240 240 240 240 240 240 240 240 239 238 237 237 236 236 236 236 235 235 234 234 234 234 235 236 237 239 240 242 243 243 244
4 2 360 359 357 356 355 355 354 351 348 344 339 332 325 318 309 301 294 288 283 279 276 273 271 269 267 266 264 263 262 261 260 259 259 259 259 258 255 252 250 249 247 245 244 243 242 242 242 241 241 240 240 239 239 239 239 239 239 239 240 240 239 238 238 237 236 236 236 236 236 235 235 234 234 235 235 236 236 238 239 241 242 243 244
6 4 2 0 359 358 357 357 356 355 353 349 345 339 333 326 318 309 301 293 287 282 278 275 272 270 268 267 265 263 262 262 261 261 260 260 259 258 256 254 251 249 247 245 244 243 242 241 241 241 241 240 240 240 239 239 239 239 238 238 238 239 238 238 238 237 237 236 236 236 236 236 236 236 235 236 236 236 236 237 238 240 241 243 244
7 6 5 2 1 360 359 358 357 356 354 352 349 345 340 334 327 319 310 301 292 285 279 275 272 269 266 265 264 263 262 261 261 261 261 260 259 257 255 253 250 248 247 246 244 243 243 242 242 241 241 240 239 239 239 239 239 239 239 238 238 238 238 238 238 237 237 237 236 236 236 236 236 236 236 236 236 237 237 237 238 239 241 242 243
9 9 7 5 3 0 359 358 356 355 354 352 350 347 344 341 335 328 320 311 302 293 285 278 273 269 266 264 262 260 259 258 258 259 260 259 258 257 255 252 249 246 245 244 244 243 242 242 242 242 241 240 239 238 238 238 239 239 238 238 239 239 238 237 237 237 237 237 236 236 236 236 236 236 236 236 237 237 237 238 238 239 240 242 243
9 9 8 7 5 3 360 357 355 354 354 353 351 349 347 345 342 337 330 322 313 304 295 288 281 275 270 267 264 261 259 258 258 257 258 258 258 257 255 252 249 247 245 244 243 242 241 240 240 240 240 239 238 237 237 237 238 238 238 238 239 239 237 237 237 237 237 237 236 236 236 236 236 236 235 236 236 237 237 238 238 239 240 241 243
9 8 7 7 7 5 2 359 356 354 353 353 352 351 349 347 344 341 338 332 325 316 307 298 290 284 278 272 268 265 262 261 260 259 259 259 259 258 256 254 251 248 246 244 243 242 241 240 239 239 239 238 238 237 237 237 238 238 238 238 238 238 237 237 237 237 238 237 237 237 236 236 236 236 236 236 236 237 237 238 239 240 240 241 242
10 8 7 6 6 5 3 1 358 356 354 353 354 353 351 349 346 343 340 337 333 326 319 310 301 292 284 278 274 269 266 263 262 262 262 262 262 262 261 259 257 254 250 247 245 244 243 241 240 239 239 238 238 237 237 238 238 239 239 238 237 237 237 236 236 236 237 237 237 237 237 236 236 236 236 237 237 237 238 239 240 240 241 241 242
10 9 8 7 6 5 4 2 1 359 357 356 355 355 353 352 350 348 346 342 337 333 327 321 313 304 294 285 278 273 269 266 262 261 260 260 261 262 262 261 259 257 255 252 249 247 245 243 242 241 240 239 238 237 237 238 239 241 241 240 239 237 237 236 235 235 236 236 237 237 237 236 236 236 237 237 237 237 238 238 239 239 240 241 242
10 9 8 7 6 5 4 3 2 1 360 359 357 356 354 353 352 351 350 347 343 338 334 328 321 314 307 298 288 279 273 269 265 261 259 256 256 257 257 258 258 257 257 255 253 251 248 246 243 241 240 239 239 239 239 239 240 241 242 242 240 238 238 237 235 234 235 235 236 237 237 236 236 236 236 236 237 237 237 238 238 239 239 240 241
11 10 8 7 6 5 4 4 3 2 1 0 359 358 356 355 353 352 350 349 347 344 340 335 329 322 316 310 303 293 283 275 269 265 261 257 254 253 253 254 255 255 256 256 256 255 253 251 248 245 241 239 238 238 238 238 239 241 242 242 241 239 238 238 237 236 236 236 236 237 237 236 236 235 235 235 236 236 237 237 238 238 239 239 240
11 11 9 8 6 5 4 3 3 3 2 2 0 359 358 356 354 353 351 350 348 346 343 339 335 329 323 319 314 308 301 292 283 275 267 261 256 253 251 251 250 251 251 253 254 255 255 254 253 250 247 243 239 236 235 235 236 238 239 240 240 238 238 238 238 237 237 237 237 238 238 238 237 236 236 235 235 236 236 237 237 238 238 239 239
10 10 10 9 8 6 4 3 2 2 2 1 1 360 359 357 355 353 351 349 347 346 344 341 339 336 331 326 321 316 311 305 299 291 282 273 264 258 254 251 249 248 247 247 249 250 252 253 253 252 250 248 244 240 236 234 234 234 236 238 240 240 239 239 239 238 237 238 238 238 238 238 238 237 237 236 236 235 236 236 237 237 238 238 239
10 9 9 8 8 7 6 4 3 2 1 0 360 359 359 358 357 354 351 348 347 346 345 343 341 339 337 332 328 322 315 309 304 298 292 286 279 272 266 261 256 253 250 248 247 247 247 248 248 248 248 247 246 244 241 238 235 234 235 236 238 238 238 238 238 238 237 237 237 238 238 238 238 237 237 237 237 236 236 236 236 237 238 238 239
9 9 8 8 7 6 6 5 3 2 1 0 360 359 358 357 357 357 354 351 349 349 348 346 344 342 341 338 335 329 322 313 306 299 293 289 284 281 277 272 268 263 258 254 252 251 249 248 246 244 242 242 242 243 243 242 240 238 237 237 236 235 235 235 236 236 236 236 237 237 238 239 239 238 238 238 238 238 238 238 237 237 238 238 239
7 8 8 7 6 5 5 5 4 2 1 360 359 360 359 357 356 356 356 355 354 352 351 350 349 347 346 343 341 339 333 324 315 307 299 293 287 281 278 276 273 269 264 259 256 254 252 251 249 245 241 238 237 237 239 240 241 240 239 238 237 236 234 234 234 234 235 236 236 237 238 239 239 240 239 238 238 239 240 240 239 239 239 239 239
7 7 7 6 6 5 4 3 3 2 1 359 358 357 358 358 357 356 355 355 355 355 353 352 351 351 351 349 346 344 342 336 328 320 311 304 295 286 280 276 274 272 269 265 259 255 253 252 251 249 245 239 235 234 235 236 237 238 238 237 236 235 234 233 233 233 234 234 235 237 238 239 240 240 241 240 239 239 240 241 241 241 241 240 240
7 6 6 6 6 5 4 2 2 1 1 359 358 356 355 356 357 357 356 354 354 354 353 351 351 352 354 353 350 347 345 342 338 333 328 322 314 304 293 285 279 274 272 268 263 258 254 250 250 250 248 244 239 236 233 233 233 234 234 235 234 234 234 233 232 232 232 232 233 234 236 237 239 240 241 241 241 240 241 241 242 242 242 242 241
6 6 5 5 5 5 4 2 1 360 359 359 358 356 354 354 354 355 355 354 353 352 352 351 349 349 352 355 353 349 346 344 342 340 338 335 331 326 317 308 296 284 276 270 266 261 256 252 248 246 244 243 242 240 238 235 233 232 231 231 231 232 233 233 233 233 232 232 232 232 232 234 235 237 239 240 241 241 241 242 242 242 241 241 241
6 6 5 4 4 4 3 2 1 359 358 357 357 356 354 353 351 351 352 353 352 351 350 350 348 347 350 354 353 350 348 345 343 341 340 339 338 336 332 328 321 309 295 282 272 265 259 254 250 246 240 237 237 237 237 236 235 233 232 231 230 230 231 232 234 234 235 234 233 233 232 232 233 234 235 237 238 239 240 241 241 241 241 241 241
6 6 5 5 4 3 2 2 1 359 357 356 355 355 354 353 351 349 349 350 350 349 348 349 347 346 348 351 352 349 347 346 344 343 342 341 339 338 337 335 333 329 320 308 292 277 265 255 250 246 241 237 235 233 233 233 233 232 231 231 231 231 231 232 233 234 235 236 236 235 235 234 233 233 233 234 235 237 238 239 240 240 241 241 241
5 4 4 4 4 3 2 1 1 359 357 355 354 353 353 352 350 348 346 346 347 347 347 346 345 344 345 348 349 347 345 344 343 343 343 343 341 338 336 334 333 331 330 326 316 300 283 267 254 247 242 238 235 232 230 229 229 230 229 228 228 228 228 229 229 230 231 233 234 234 235 235 234 234 233 233 234 234 235 236 237 238 238 239 240
5 5 4 3 3 3 2 1 0 359 357 355 354 353 352 351 350 348 346 344 344 344 344 343 343 343 343 344 345 344 343 342 341 341 342 342 341 339 337 333 330 328 327 327 324 316 304 289 272 259 250 244 240 236 232 229 227 227 228 228 228 227 227 226 227 227 228 228 229 230 230 231 231 232 232 232 232 233 233 233 234 235 236 236 237
4 4 4 3 2 2 2 1 0 359 357 355 353 352 351 349 348 347 345 343 342 341 341 340 340 340 339 339 340 340 340 340 340 339 339 339 338 337 335 332 328 325 323 320 318 315 311 303 292 279 266 255 250 246 243 238 234 232 230 229 229 228 228 227 227 227 227 227 227 228 228 229 229 229 230 230 230 231 231 231 231 232 232 233 234
3 3 3 3 2 2 1 0 360 359 357 355 353 352 350 348 347 346 344 343 341 340 339 338 337 336 335 335 335 336 337 337 337 337 336 336 335 334 331 328 325 321 317 315 311 309 306 303 298 291 281 271 262 257 252 249 246 242 239 237 236 234 233 232 231 230 229 229 228 228 229 229 230 230 230 230 230 231 231 231 231 231 232 232 233
2 2 2 2 2 2 1 0 359 359 358 356 353 351 349 348 346 344 343 342 340 339 337 336 335 333 332 332 332 332 332 333 333 333 332 332 332 330 328 325 321 316 312 308 306 303 300 297 293 289 283 276 269 263 258 256 253 250 247 245 243 241 240 239 238 237 236 235 233 232 231 231 231 231 231 231 232 232 232 232 233 233 233 234 234
1 1 1 1 1 1 1 360 359 358 358 356 354 351 348 347 345 343 341 340 339 338 337 335 334 332 330 329 329 329 329 329 329 329 329 328 328 328 327 324 321 317 312 306 302 298 294 291 288 284 280 276 270 264 259 255 253 252 251 248 246 244 242 242 241 241 241 240 239 238 236 235 234 233 233 233 233 233 233 233 233 234 234 235 235
1 1 0 0 0 0 360 360 359 358 357 356 355 352 349 346 344 343 340 338 337 337 336 334 333 332 330 327 326 325 325 325 326 326 326 325 324 325 324 323 321 319 315 310 305 299 293 288 285 281 278 275 272 268 263 258 253 251 250 248 246 244 242 240 240 239 239 240 240 240 240 239 238 237 237 235 235 235 234 234 234 234 234 234 235
2 1 360 359 359 359 359 359 359 358 357 356 355 353 350 346 343 342 340 338 336 335 334 333 332 331 329 327 325 322 321 321 321 322 322 322 321 321 320 320 318 316 314 311 307 303 298 292 286 281 276 273 270 268 266 263 260 256 254 253 250 248 246 243 242 240 239 239 239 239 240 240 240 240 240 239 238 238 237 237 237 237 237 237 237
1 0 359 359 358 358 358 358 358 358 357 356 355 354 351 348 344 341 339 337 336 334 333 332 331 329 328 326 324 321 318 317 317 317 317 317 317 316 315 314 313 312 309 307 305 302 299 295 290 285 279 274 270 267 264 262 260 257 256 255 254 253 252 250 248 246 244 242 241 240 239 239 239 239 240 240 240 239 239 239 239 239 240 240 240
1 360 359 358 358 357 357 357 357 357 357 357 356 354 352 349 346 342 339 337 336 334 332 330 329 328 326 325 323 320 317 315 313 313 313 313 313 312 311 310 309 308 306 305 302 300 297 295 291 288 284 279 275 270 266 263 259 257 254 253 252 252 252 252 251 250 248 246 245 243 242 241 240 240 239 239 239 239 238 238 238 239 239 240 241
0 360 358 357 357 357 356 356 356 356 356 356 356 355 353 351 348 344 340 337 335 334 332 330 328 326 324 323 321 319 316 314 311 309 308 308 308 308 308 307 305 304 303 301 300 298 296 294 291 289 287 283 280 276 271 267 263 259 255 253 251 250 249 249 249 249 248 247 246 245 244 243 243 242 242 241 240 240 239 238 237 237 237 238 239
0 359 358 357 356 355 355 355 355 355 355 355 355 354 354 352 349 346 341 337 335 334 332 330 327 324 323 321 319 318 315 313 310 307 304 303 303 303 303 303 302 300 298 297 296 294 292 290 289 288 287 285 284 282 279 276 273 268 264 260 256 253 250 249 247 246 245 245 244 243 243 242 242 241 241 241 241 241 241 240 239 239 239 239 239
360 359 358 357 355 354 354 354 354 354 353 353 354 354 353 352 351 348 344 339 336 333 331 329 327 324 321 320 318 316 314 312 309 306 303 300 298 297 297 297 297 297 295 293 291 290 289 287 285 284 284 283 283 283 282 281 280 278 275 272 269 265 261 258 255 252 250 248 246 245 245 244 244 243 243 243 243 243 243 243 242 242 242 242 242
359 359 358 357 355 354 353 353 353 353 352 352 352 352 352 352 351 349 346 342 337 333 331 329 326 323 321 318 316 315 313 311 308 306 303 300 297 294 292 291 291 292 292 290 288 286 285 284 282 280 278 276 276 276 277 278 279 279 279 278 277 275 273 270 268 265 263 260 258 256 255 253 253 252 251 251 250 250 249 248 248 248 248 249 248
Height
9959 9958 9957 9956 9954 9953 9952 9951 9951 9951 9950 9950 9951 9951 9953 9954 9955 9956 9958 9960 9962 9965 9967 9969 9972 9975 9978 9982 9985 9988 9991 9993 9996 10000 10003 10007 10011 10013 10015 10019 10022 10025 10028 10033 10037 10041 10047 10052 10057 10063 10066 10069 10075 10081 10088 10096 10105 10113 10122 10129 10134 10142 10152 10161 10175 10190 10195 10198 10205 10209 10215 10223 10230 10238 10246 10252 10258 10263 10269 10275 10280 10287 10295 10303 10311
9951 9950 9949 9948 9947 9946 9945 9944 9943 9943 9942 9942 9942 9943 9943 9945 9946 9947 9948 9950 9952 9954 9956 9958 9961 9964 9968 9970 9974 9977 9979 9982 9985 9989 9993 9997 10000 10002 10004 10007 10010 10012 10016 10020 10023 10027 10033 10038 10042 10046 10050 10054 10060 10067 10073 10081 10088 10096 10104 10113 10120 10128 10136 10144 10157 10172 10178 10181 10187 10192 10197 10205 10213 10220 10227 10234 10241 10246 10251 10257 10264 10271 10278 10284 10291
9943 9942 9941 9940 9939 9938 9937 9936 9936 9935 9934 9934 9934 9934 9935 9935 9937 9938 9939 9941 9943 9946 9947 9949 9950 9953 9957 9959 9962 9964 9968 9972 9976 9980 9984 9987 9988 9990 9992 9995 9998 10001 10004 10007 10010 10015 10019 10024 10027 10030 10034 10040 10047 10053 10058 10064 10071 10079 10088 10096 10105 10114 10121 10128 10138 10151 10160 10164 10169 10175 10181 10188 10196 10203 10209 10215 10222 10228 10233 10240 10247 10254 10261 10266 10273
9938 9936 9935 9933 9932 9932 9931 9930 9929 9928 9927 9927 9926 9926 9927 9927 9928 9929 9931 9932 9934 9936 9938 9940 9941 9944 9946 9949 9952 9954 9958 9962 9966 9970 9972 9973 9975 9977 9979 9983 9986 9989 9992 9995 9998 10003 10007 10010 10013 10015 10020 10026 10033 10038 10043 10049 10055 10063 10071 10079 10088 10098 10106 10113 10121 10131 10140 10145 10150 10157 10164 10171 10179 10186 10191 10196 10204 10212 10218 10224 10230 10239 10247 10252 10257
9933 9931 9929 9927 9926 9925 9924 9924 9923 9922 9921 9921 9920 9920 9920 9920 9921 9922 9923 9924 9925 9927 9929 9930 9933 9935 9938 9940 9943 9945 9948 9952 9955 9957 9958 9959 9962 9964 9966 9970 9974 9978 9981 9983 9986 9990 9993 9996 9999 10002 10007 10013 10019 10023 10028 10034 10041 10048 10055 10062 10071 10081 10089 10098 10107 10115 10122 10127 10133 10140 10147 10152 10160 10168 10174 10180 10188 10196 10203 10209 10215 10224 10233 10239 10243
9929 9926 9924 9922 9921 9919 9918 9917 9917 9916 9915 9915 9915 9915 9915 9915 9915 9915 9915 9916 9917 9918 9920 9921 9924 9927 9929 9932 9934 9937 9940 9942 9943 9944 9945 9947 9949 9952 9955 9959 9963 9967 9970 9972 9974 9977 9981 9984 9986 9990 9996 10001 10006 10010 10014 10020 10026 10033 10041 10047 10054 10062 10071 10082 10092 10101 10107 10112 10117 10123 10129 10135 10143 10152 10159 10164 10170 10177 10185 10192 10199 10206 10216 10224 10230
9925 9922 9920 9918 9917 9915 9914 9912 9911 9910 9909 9909 9909 9909 9909 9909 9909 9909 9908 9908 9909 9910 9911 9913 9915 9919 9922 9925 9928 9930 9931 9933 9934 9935 9936 9939 9941 9943 9946 9950 9953 9956 9959 9961 9963 9966 9970 9973 9976 9980 9984 9988 9992 9996 10001 10007 10013 10019 10026 10031 10037 10044 10054 10065 10077 10087 10095 10099 10102 10106 10112 10120 10127 10135 10142 10147 10152 10159 10166 10175 10183 10191 10200 10209 10216
9922 9919 9917 9915 9913 9911 9909 9908 9907 9906 9904 9904 9903 9903 9903 9903 9902 9901 9901 9902 9903 9904 9905 9906 9908 9911 9915 9917 9920 9921 9922 9925 9927 9929 9931 9932 9932 9934 9937 9940 9943 9945 9947 9950 9953 9956 9960 9963 9967 9970 9973 9976 9979 9983 9989 9994 10000 10006 10011 10016 10022 10030 10040 10050 10061 10072 10081 10087 10090 10092 10097 10103 10109 10118 10125 10130 10136 10145 10153 10161 10169 10176 10183 10191 10198
9920 9917 9914 9912 9909 9907 9906 9904 9903 9901 9900 9899 9899 9898 9898 9898 9897 9895 9894 9895 9897 9899 9900 9900 9901 9904 9907 9909 9910 9912 9915 9917 9920 9921 9921 9921 9922 9925 9928 9931 9933 9935 9938 9941 9943 9946 9949 9953 9956 9959 9962 9965 9968 9973 9978 9982 9988 9993 9998 10003 10010 10019 10028 10036 10045 10056 10065 10073 10077 10081 10084 10087 10093 10101 10109 10115 10124 10133 10139 10143 10150 10156 10161 10168 10175
9918 9915 9912 9909 9906 9904 9903 9901 9899 9898 9896 9895 9894 9893 9893 9892 9891 9890 9889 9890 9892 9893 9894 9895 9896 9898 9900 9901 9902 9904 9907 9909 9911 9912 9912 9913 9914 9916 9919 9922 9924 9926 9929 9931 9934 9936 9939 9942 9945 9949 9952 9956 9959 9963 9967 9971 9976 9981 9986 9992 9999 10007 10015 10022 10031 10039 10047 10055 10062 10067 10071 10075 10079 10085 10093 10103 10111 10116 10119 10123 10130 10136 10140 10147 10157
9917 9913 9910 9907 9904 9902 9900 9898 9896 9895 9893 9891 9890 9889 9888 9888 9887 9886 9885 9886 9887 9887 9888 9889 9890 9891 9893 9894 9895 9896 9899 9901 9903 9903 9904 9905 9906 9907 9910 9912 9915 9917 9919 9922 9925 9927 9930 9933 9936 9940 9943 9946 9950 9953 9957 9961 9965 9969 9974 9980 9988 9995 10002 10009 10017 10024 10031 10038 10046 10051 10057 10064 10069 10071 10076 10085 10092 10096 10101 10107 10112 10117 10123 10131 10141
9915 9911 9908 9905 9902 9899 9897 9895 9894 9892 9890 9889 9887 9886 9885 9884 9883 9882 9882 9882 9882 9883 9883 9883 9884 9885 9886 9887 9888 9889 9891 9893 9893 9894 9895 9896 9897 9899 9901 9903 9905 9908 9911 9913 9915 9919 9922 9925 9928 9931 9933 9936 9940 9944 9948 9951 9955 9959 9963 9969 9976 9983 9989 9995 10002 10009 10016 10023 10030 10036 10043 10052 10057 10058 10061 10067 10072 10078 10085 10091 10094 10101 10109 10117 10126
9913 9910 9907 9904 9901 9898 9895 9893 9891 9890 9888 9886 9885 9883 9882 9881 9880 9879 9879 9879 9879 9879 9879 9878 9879 9879 9880 9881 9882 9883 9884 9885 9886 9887 9888 9889 9890 9892 9894 9896 9898 9900 9902 9904 9907 9910 9913 9916 9919 9922 9924 9928 9931 9935 9938 9942 9946 9950 9954 9959 9965 9971 9977 9983 9988 9994 10001 10009 10016 10023 10030 10037 10042 10046 10050 10052 10053 10058 10066 10073 10079 10087 10095 10102 10110
9912 9909 9906 9903 9900 9897 9894 9891 9889 9888 9886 9884 9883 9881 9880 9878 9877 9876 9876 9875 9875 9875 9875 9875 9875 9875 9875 9876 9877 9878 9878 9879 9879 9880 9881 9882 9884 9885 9887 9889 9891 9893 9895 9897 9899 9902 9905 9907 9910 9913 9916 9919 9922 9926 9929 9933 9937 9941 9945 9949 9954 9960 9966 9972 9977 9982 9988 9996 10003 10010 10016 10022 10027 10033 10036 10038 10038 10041 10048 10057 10064 10072 10079 10085 10092
9912 9908 9905 9902 9898 9896 9893 9890 9888 9886 9884 9882 9881 9879 9878 9876 9875 9874 9873 9873 9872 9872 9872 9871 9871 9871 9871 9872 9872 9873 9873 9873 9873 9874 9874 9876 9877 9879 9881 9883 9884 9886 9888 9890 9892 9895 9897 9899 9902 9905 9908 9911 9914 9918 9921 9925 9929 9932 9936 9940 9944 9949 9955 9960 9966 9972 9977 9984 9990 9997 10003 10009 10014 10019 10021 10024 10027 10031 10036 10042 10048 10055 10061 10068 10074
9912 9908 9905 9901 9898 9895 9892 9889 9887 9885 9882 9880 9879 9877 9875 9874 9873 9872 9871 9870 9869 9869 9868 9868 9868 9868 9868 9868 9868 9868 9868 9868 9868 9868 9869 9870 9872 9873 9875 9877 9878 9880 9882 9884 9886 9888 9890 9891 9893 9896 9899 9902 9906 9909 9913 9917 9920 9923 9927 9931 9935 9940 9944 9950 9956 9962 9967 9974 9980 9985 9991 9996 10002 10005 10009 10013 10017 10021 10025 10029 10034 10040 10048 10056 10063
9912 9908 9905 9901 9898 9895 9892 9889 9886 9884 9881 9879 9877 9875 9874 9872 9871 9870 9868 9867 9867 9866 9865 9865 9864 9864 9864 9864 9864 9864 9864 9864 9864 9864 9865 9865 9866 9868 9869 9871 9872 9873 9875 9877 9879 9881 9882 9884 9886 9889 9891 9894 9897 9900 9904 9908 9911 9914 9918 9922 9926 9930 9934 9940 9947 9952 9957 9963 9968 9972 9977 9982 9988 9993 9997 10001 10006 10011 10015 10019 10024 10030 10036 10044 10051
9913 9909 9905 9902 9898 9895 9891 9889 9886 9883 9881 9878 9876 9874 9872 9871 9869 9868 9867 9865 9864 9863 9862 9862 9861 9861 9860 9860 9860 9860 9860 9859 9859 9860 9860 9861 9861 9862 9864 9865 9867 9867 9868 9870 9872 9874 9875 9877 9879 9881 9884 9886 9889 9893 9896 9899 9902 9905 9909 9913 9917 9920 9924 9931 9937 9941 9946 9951 9955 9960 9965 9970 9975 9980 9985 9989 9995 10001 10005 10010 10014 10018 10023 10030 10038
9914 9910 9906 9902 9898 9895 9891 9888 9885 9883 9880 9878 9876 9874 9872 9870 9868 9866 9865 9864 9862 9861 9860 9860 9859 9858 9858 9857 9857 9856 9856 9856 9855 9855 9855 9856 9856 9857 9858 9860 9861 9862 9863 9864 9866 9867 9869 9870 9872 9874 9877 9880 9883 9885 9888 9891 9893 9896 9900 9904 9906 9909 9914 9922 9928 9931 9935 9939 9944 9949 9954 9958 9964 9969 9973 9978 9983 9989 9994 9998 10001 10005 10010 10017 10024
9914 9910 9906 9903 9899 9895 9892 9888 9885 9882 9879 9877 9875 9873 9871 9869 9867 9865 9864 9862 9861 9860 9858 9857 9856 9856 9855 9854 9854 9853 9853 9852 9852 9851 9851 9852 9852 9852 9853 9855 9856 9857 9858 9859 9861 9862 9864 9865 9866 9868 9871 9873 9876 9879 9881 9883 9885 9888 9892 9895 9896 9900 9907 9915 9918 9920 9924 9929 9934 9938 9942 9947 9952 9957 9962 9967 9971 9976 9980 9985 9989 9994 9998 10003 10009
9916 9912 9907 9903 9900 9896 9892 9888 9885 9882 9879 9876 9874 9872 9870 9868 9866 9864 9863 9861 9860 9858 9857 9855 9854 9853 9852 9851 9850 9850 9849 9848 9848 9847 9847 9847 9848 9848 9849 9850 9851 9852 9853 9854 9855 9857 9858 9859 9861 9862 9865 9867 9869 9871 9873 9875 9877 9880 9884 9885 9888 9894 9901 9905 9907 9910 9914 9918 9922 9926 9930 9934 9939 9944 9950 9954 9958 9962 9966 9971 9976 9981 9985 9991 9997
9918 9913 9909 9905 9901 9897 9893 9889 9886 9882 9879 9877 9874 9872 9869 9867 9865 9864 9862 9860 9858 9857 9855 9853 9852 9851 9850 9849 9848 9847 9846 9845 9844 9844 9843 9843 9843 9844 9844 9845 9846 9847 9848 9849 9850 9851 9852 9853 9855 9856 9858 9860 9863 9864 9866 9867 9869 9872 9875 9877 9881 9887 9892 9895 9897 9901 9904 9908 9912 9916 9919 9923 9928 9932 9937 9941 9945 9949 9953 9958 9963 9967 9973 9979 9985
9919 9915 9910 9906 9902 9898 9895 9891 9887 9884 9880 9877 9874 9872 9869 9867 9864 9862 9860 9859 9857 9855 9853 9851 9850 9848 9847 9846 9845 9844 9843 9842 9842 9841 9840 9840 9839 9839 9840 9841 9841 9842 9843 9844 9845 9845 9847 9848 9849 9850 9852 9854 9856 9858 9859 9861 9862 9864 9867 9870 9874 9879 9884 9887 9890 9893 9895 9899 9903 9905 9909 9913 9917 9922 9926 9930 9934 9939 9943 9947 9952 9957 9963 9969 9973
9922 9917 9912 9907 9903 9899 9896 9892 9888 9885 9881 9878 9875 9872 9869 9866 9864 9861 9859 9857 9855 9853 9851 9850 9848 9847 9845 9844 9843 9842 9841 9840 9839 9838 9837 9837 9836 9836 9836 9836 9837 9838 9839 9839 9840 9841 9842 9843 9844 9845 9847 9848 9850 9852 9853 9854 9856 9857 9860 9864 9868 9872 9876 9879 9882 9884 9887 9890 9893 9895 9899 9904 9908 9912 9917 9921 9925 9930 9935 9939 9943 9948 9954 9957 9960
9924 9919 9914 9909 9905 9901 9897 9893 9889 9885 9882 9879 9876 9873 9870 9866 9863 9861 9858 9856 9854 9852 9850 9848 9846 9845 9844 9842 9841 9840 9838 9837 9836 9835 9834 9834 9833 9832 9832 9832 9832 9833 9833 9834 9835 9836 9837 9838 9839 9840 9842 9843 9845 9846 9848 9849 9850 9851 9854 9858 9862 9866 9868 9870 9874 9876 9878 9880 9883 9886 9890 9895 9899 9903 9908 9912 9916 9921 9925 9929 9933 9937 9942 9945 9948
9926 9920 9915 9911 9906 9902 9898 9894 9890 9886 9883 9879 9876 9873 9870 9867 9864 9861 9858 9856 9853 9851 9849 9847 9845 9843 9842 9840 9839 9838 9836 9835 9834 9833 9832 9831 9830 9829 9829 9828 9828 9828 9828 9829 9829 9830 9831 9832 9834 9835 9837 9838 9840 9841 9843 9844 9846 9847 9849 9852 9856 9860 9861 9862 9866 9869 9870 9872 9875 9878 9882 9886 9890 9894 9898 9902 9906 9909 9914 9918 9921 9925 9929 9933 9936
9929 9923 9917 9912 9908 9903 9899 9895 9891 9887 9883 9879 9876 9873 9870 9867 9864 9861 9858 9855 9853 9850 9848 9846 9844 9842 9840 9838 9836 9835 9834 9833 9831 9830 9829 9828 9827 9827 9826 9826 9825 9825 9825 9825 9825 9825 9826 9827 9828 9830 9831 9833 9834 9836 9838 9840 9841 9842 9844 9846 9849 9852 9854 9855 9859 9862 9864 9866 9868 9870 9873 9877 9881 9885 9889 9892 9895 9899 9904 9907 9911 9914 9917 9920 9924
9932 9926 9921 9915 9910 9905 9900 9896 9891 9888 9884 9880 9877 9873 9870 9867 9864 9861 9858 9855 9852 9850 9847 9845 9843 9841 9839 9837 9835 9833 9832 9830 9829 9828 9827 9826 9825 9824 9823 9823 9823 9822 9822 9822 9822 9822 9822 9822 9823 9825 9826 9827 9829 9831 9832 9834 9835 9836 9838 9840 9842 9844 9847 9848 9851 9855 9857 9859 9861 9863 9866 9869 9873 9876 9880 9883 9886 9890 9894 9897 9900 9902 9905 9908 9913
9934 9929 9923 9918 9912 9907 9902 9898 9893 9889 9885 9881 9878 9875 9871 9868 9865 9862 9859 9856 9852 9849 9847 9844 9842 9840 9838 9836 9834 9832 9830 9828 9827 9826 9824 9823 9822 9821 9820 9820 9820 9819 9819 9819 9819 9819 9819 9819 9820 9820 9821 9822 9824 9825 9827 9828 9829 9831 9832 9834 9836 9839 9841 9843 9845 9848 9851 9852 9854 9857 9859 9862 9865 9868 9870 9873 9877 9880 9884 9886 9889 9892 9895 9898 9901
9936 9930 9924 9919 9914 9909 9904 9899 9895 9891 9887 9883 9879 9875 9872 9869 9866 9862 9859 9856 9853 9850 9847 9844 9841 9839 9837 9835 9833 9831 9829 9827 9826 9824 9823 9821 9820 9819 9818 9817 9817 9816 9816 9816 9816 9816 9816 9816 9817 9817 9818 9818 9819 9820 9821 9823 9824 9826 9827 9829 9831 9834 9836 9837 9839 9841 9844 9845 9847 9849 9851 9854 9856 9859 9862 9865 9868 9871 9873 9876 9880 9883 9885 9888 9891
9937 9931 9926 9920 9915 9909 9905 9900 9895 9891 9887 9883 9879 9875 9872 9868 9866 9863 9859 9856 9853 9850 9847 9844 9842 9839 9836 9834 9832 9830 9829 9827 9825 9823 9821 9820 9819 9817 9816 9815 9814 9814 9813 9813 9813 9813 9813 9813 9813 9814 9814 9815 9815 9816 9817 9818 9819 9821 9822 9824 9826 9828 9830 9832 9834 9835 9837 9839 9840 9843 9845 9847 9849 9852 9855 9858 9860 9863 9865 9868 9871 9874 9876 9879 9882
9938 9932 9927 9921 9916 9910 9905 9900 9896 9891 9887 9883 9880 9876 9872 9868 9865 9861 9858 9856 9853 9850 9847 9844 9841 9839 9836 9834 9832 9830 9828 9826 9824 9822 9820 9819 9817 9816 9815 9813 9812 9812 9811 9810 9810 9810 9810 9810 9810 9810 9811 9811 9812 9812 9813 9814 9815 9816 9817 9819 9821 9822 9824 9827 9828 9830 9832 9833 9835 9837 9839 9841 9843 9845 9848 9851 9854 9856 9858 9860 9863 9866 9869 9872 9875
9940 9934 9928 9922 9917 9911 9906 9901 9896 9892 9887 9883 9880 9876 9873 9869 9865 9861 9858 9855 9852 9849 9846 9844 9841 9838 9836 9833 9831 9829 9827 9825 9823 9821 9819 9818 9816 9815 9813 9812 9811 9810 9809 9809 9808 9808 9807 9807 9807 9807 9807 9808 9808 9809 9809 9810 9811 9812 9813 9814 9816 9817 9819 9821 9823 9825 9826 9828 9830 9832 9834 9835 9837 9839 9841 9844 9847 9849 9850 9852 9855 9859 9862 9865 9868
9940 9935 9930 9924 9918 9913 9907 9902 9897 9892 9888 9884 9880 9876 9872 9869 9865 9862 9858 9855 9851 9849 9846 9843 9840 9837 9835 9832 9830 9828 9826 9824 9822 9820 9819 9817 9815 9814 9813 9811 9810 9809 9808 9807 9807 9806 9805 9805 9804 9804 9805 9805 9805 9805 9806 9806 9807 9808 9809 9810 9811 9812 9814 9815 9817 9819 9820 9822 9824 9826 9828 9830 9832 9834 9835 9837 9840 9842 9844 9846 9849 9852 9855 9858 9860
9941 9935 9929 9924 9919 9914 9908 9903 9898 9893 9888 9883 9879 9876 9872 9868 9864 9861 9858 9855 9852 9849 9845 9843 9840 9837 9834 9831 9829 9827 9825 9823 9821 9819 9818 9816 9815 9813 9812 9811 9809 9808 9807 9806 9805 9805 9804 9803 9802 9802 9802 9802 9802 9802 9803 9803 9804 9805 9805 9806 9807 9808 9810 9811 9812 9814 9815 9817 9819 9820 9822 9824 9826 9828 9830 9831 9834 9836 9838 9840 9843 9845 9848 9850 9853
9944 9937 9931 9925 9919 9914 9909 9904 9899 9893 9888 9884 9879 9875 9871 9868 9864 9860 9857 9854 9851 9848 9845 9842 9840 9837 9833 9830 9828 9826 9824 9822 9820 9818 9817 9815 9813 9812 9811 9810 9809 9808 9806 9805 9804 9803 9803 9802 9801 9801 9800 9800 9799 9800 9800 9801 9801 9802 9802 9803 9804 9805 9806 9807 9808 9809 9811 9812 9814 9816 9817 9819 9820 9822 9824 9826 9828 9830 9832 9834 9836 9839 9841 9843 9845
9943 9938 9932 9926 9920 9914 9909 9904 9899 9894 9889 9884 9879 9875 9871 9867 9864 9860 9857 9854 9851 9848 9845 9842 9839 9837 9833 9830 9828 9826 9824 9822 9820 9818 9816 9814 9812 9811 9809 9808 9807 9806 9806 9805 9804 9803 9802 9801 9800 9799 9799 9798 9798 9798 9798 9798 9798 9799 9800 9800 9801 9802 9803 9804 9805 9806 9807 9808 9810 9811 9813 9815 9816 9817 9819 9821 9822 9824 9826 9828 9830 9832 9834 9837 9839
9943 9936 9930 9925 9920 9914 9909 9904 9899 9894 9889 9884 9879 9875 9871 9867 9863 9860 9856 9853 9850 9847 9844 9842 9839 9836 9833 9830 9827 9825 9823 9821 9819 9817 9815 9813 9811 9809 9808 9807 9806 9805 9804 9803 9803 9802 9801 9800 9799 9798 9797 9797 9796 9796 9796 9796 9796 9796 9797 9797 9798 9799 9799 9800 9801 9802 9803 9804 9805 9807 9808 9810 9811 9813 9815 9816 9818 9819 9821 9823 9825 9826 9828 9830 9832
9944 9937 9930 9924 9919 9914 9908 9903 9898 9893 9888 9883 9879 9874 9870 9866 9862 9859 9855 9852 9849 9846 9843 9840 9838 9835 9832 9830 9827 9825 9822 9820 9818 9816 9814 9812 9810 9808 9807 9805 9804 9803 9802 9802 9801 9800 9800 9799 9798 9797 9796 9796 9795 9794 9794 9794 9794 9794 9794 9795 9795 9796 9796 9797 9798 9798 9799 9800 9801 9802 9803 9805 9806 9808 9809 9811 9813 9815 9816 9818 9819 9821 9823 9824 9826
9944 9937 9930 9924 9918 9912 9907 9902 9897 9892 9887 9882 9878 9873 9869 9865 9861 9858 9854 9851 9847 9844 9841 9839 9836 9834 9832 9829 9826 9824 9822 9819 9817 9815 9813 9811 9809 9807 9806 9804 9803 9802 9801 9800 9799 9798 9798 9797 9796 9796 9795 9795 9794 9793 9793 9792 9792 9792 9792 9792 9793 9793 9794 9794 9795 9796 9796 9797 9798 9799 9799 9801 9802 9803 9805 9806 9808 9809 9811 9812 9814 9816 9817 9819 9820
9943 9937 9930 9923 9917 9911 9905 9900 9895 9891 9886 9881 9876 9872 9867 9864 9860 9856 9853 9850 9846 9843 9840 9837 9835 9832 9830 9828 9825 9823 9820 9818 9816 9814 9812 9810 9808 9806 9805 9803 9802 9800 9799 9798 9797 9796 9796 9795 9795 9794 9794 9793 9793 9792 9792 9791 9791 9791 9791 9791 9791 9791 9792 9792 9792 9793 9794 9794 9795 9796 9797 9798 9799 9800 9801 9802 9804 9805 9806 9808 9809 9811 9812 9814 9816
9942 9935 9929 9923 9916 9910 9905 9899 9893 9889 9884 9879 9874 9869 9865 9861 9858 9854 9851 9848 9844 9841 9838 9836 9833 9831 9828 9826 9823 9821 9819 9817 9815 9812 9810 9809 9807 9805 9804 9802 9801 9799 9798 9797 9796 9795 9794 9793 9793 9792 9792 9791 9791 9791 9790 9790 9790 9789 9789 9789 9789 9789 9790 9790 9790 9791 9791 9791 9792 9793 9794 9795 9796 9797 9798 9799 9800 9802 9803 9804 9805 9807 9808 9810 9812
9942 9934 9928 9921 9915 9909 9903 9898 9893 9888 9883 9878 9873 9867 9863 9859 9855 9852 9849 9845 9842 9839 9836 9834 9831 9829 9826 9824 9821 9819 9817 9815 9813 9811 9809 9807 9805 9804 9802 9801 9799 9798 9797 9795 9794 9793 9792 9791 9790 9790 9789 9789 9789 9789 9788 9788 9788 9788 9788 9788 9788 9788 9788 9788 9788 9788 9788 9789 9789 9790 9791 9792 9793 9793 9795 9796 9797 9798 9799 9800 9802 9803 9804 9806 9807
9943 9935 9928 9921 9914 9908 9902 9896 9891 9886 9881 9876 9872 9866 9861 9856 9853 9849 9846 9843 9840 9837 9834 9831 9829 9827 9824 9822 9819 9817 9815 9813 9811 9809 9807 9806 9804 9802 9800 9799 9797 9796 9795 9793 9792 9791 9790 9789 9789 9788 9787 9787 9786 9786 9786 9786 9786 9786 9786 9786 9786 9786 9786 9786 9786 9786 9786 9786 9787 9787 9788 9788 9789 9790 9791 9792 9793 9794 9796 9797 9798 9799 9800 9802 9803
9943 9935 9927 9920 9913 9907 9901 9896 9890 9885 9879 9874 9870 9865 9860 9854 9850 9846 9843 9840 9837 9834 9832 9829 9826 9824 9822 9820 9818 9816 9813 9811 9809 9807 9806 9804 9802 9800 9799 9797 9796 9794 9793 9791 9790 9789 9788 9787 9787 9786 9785 9784 9784 9783 9783 9783 9783 9783 9783 9783 9783 9783 9783 9783 9783 9783 9784 9784 9784 9784 9785 9785 9786 9786 9787 9788 9789 9790 9791 9793 9794 9795 9796 9797 9799
9941 9934 9927 9920 9912 9905 9899 9894 9889 9884 9879 9873 9868 9863 9858 9853 9848 9843 9840 9837 9834 9831 9828 9826 9824 9821 9819 9817 9815 9813 9812 9810 9807 9805 9804 9802 9800 9799 9797 9795 9794 9792 9791 9790 9788 9787 9786 9785 9784 9783 9783 9782 9781 9781 9781 9780 9780 9780 9780 9780 9781 9781 9781 9781 9781 9781 9781 9782 9782 9782 9782 9783 9783 9784 9784 9785 9786 9787 9788 9789 9790 9791 9792 9793 9794
9939 9932 9925 9918 9911 9904 9898 9891 9886 9881 9876 9871 9866 9861 9856 9851 9846 9841 9837 9833 9830 9828 9825 9823 9820 9818 9816 9814 9812 9811 9809 9807 9805 9803 9801 9800 9798 9797 9795 9794 9792 9791 9789 9788 9786 9785 9784 9783 9782 9781 9780 9780 9779 9779 9778 9778 9778 9777 9777 9777 9778 9778 9778 9778 9778 9778 9779 9779 9779 9780 9780 9780 9781 9781 9782 9782 9783 9784 9785 9786 9787 9787 9788 9789 9790
9937 9929 9922 9915 9909 9902 9896 9890 9884 9878 9873 9868 9863 9859 9854 9849 9844 9839 9834 9830 9827 9824 9822 9819 9816 9814 9812 9810 9809 9807 9806 9804 9802 9801 9799 9797 9795 9794 9793 9791 9790 9789 9787 9786 9785 9783 9782 9781 9780 9779 9778 9777 9777 9776 9776 9775 9775 9775 9775 9775 9774 9774 9775 9775 9775 9775 9776 9776 9776 9777 9777 9777 9778 9779 9779 9780 9780 9781 9782 9783 9783 9784 9785 9786 9787
9935 9927 9919 9912 9906 9899 9892 9886 9880 9875 9870 9865 9860 9855 9851 9846 9841 9836 9831 9827 9823 9820 9818 9815 9813 9810 9808 9806 9804 9803 9802 9800 9799 9797 9796 9794 9793 9791 9790 9789 9787 9786 9785 9784 9783 9781 9780 9779 9777 9776 9775 9774 9774 9773 9773 9772 9772 9772 9772 9772 9771 9771 9772 9772 9772 9772 9772 9772 9773 9773 9774 9774 9775 9775 9776 9776 9777 9777 9778 9779 9780 9780 9782 9782 9783
9934 9925 9918 9910 9903 9896 9890 9883 9877 9871 9866 9861 9856 9852 9847 9843 9838 9834 9829 9824 9820 9816 9814 9812 9809 9807 9804 9802 9800 9798 9797 9796 9795 9793 9792 9791 9790 9788 9787 9785 9784 9783 9782 9781 9780 9779 9778 9777 9775 9774 9773 9772 9771 9771 9770 9770 9769 9769 9769 9769 9768 9768 9768 9768 9768 9769 9769 9769 9769 9770 9770 9770 9771 9772 9772 9773 9773 9774 9774 9775 9776 9777 9778 9778 9779
9932 9924 9916 9909 9902 9894 9888 9881 9875 9869 9863 9858 9852 9848 9843 9839 9835 9831 9826 9822 9818 9813 9810 9807 9805 9803 9800 9798 9796 9794 9792 9791 9790 9789 9788 9787 9786 9785 9783 9782 9781 9780 9779 9778 9777 9776 9775 9774 9773 9772 9771 9770 9769 9769 9768 9768 9767 9767 9766 9766 9766 9765 9765 9765 9765 9765 9765 9765 9765 9766 9766 9766 9767 9767 9768 9769 9769 9769 9770 9771 9771 9772 9773 9774 9775